sat.trackr.live / text

‹ back to catalog

HAWK-8A

NORAD 59443 · 2024-066B

PAYLOAD ACTIVE UNKNOWN

§ Identity

Operator
Country
US
Launch date
2024-04-07
Launch site
AFETR
Launch vehicle
Mass (kg)
RCS (m²)

External: N2YO · Heavens-Above · Gunter

§ Orbital elements

Epoch: 2026-09-21T23:49:54.911424Z

Period
96.04 min
Inclination
45.6026°
Eccentricity
0.0003161
Mean motion
14.99428654 rev/d
Perigee alt
566.5 km
Apogee alt
570.9 km
Semi-major
6,946.8 km
B*
7.3458e-5
RAAN
136.0495°
Arg perigee
217.6635°
Mean anomaly
142.4025°
Rev number
13,436

§ Raw data

HAWK-8A1 59443U 24066B   26264.99299666  .00000682  00000+0  73458-4 0  99952 59443  45.6026 136.0495 0003161 217.6635 142.4025 14.99428654134366

JSON: /api/v1/satellites/59443 · /tle

For live sub-satellite position, see the globe view (requires WebGL).

§ Visibility from observer

Set your observer location to see the next 7 days of passes ≥ 10°. The values pass through the URL so the page stays shareable.

No JS? Fill the form by hand. The geolocation button needs JavaScript.